Location: Asheville, NC
(35.6000°N, 82.5500°W)
Time: 11:57:39

SEEDS - Pass Details

Date: 10 March 2018
Orbit: 588 x 605 km, 97.5° (Epoch: 23 March)

Event Time Altitude Azimuth Distance (km) Brightness Sun altitude
Rises 18:48:23 0° 162° (SSE) 2,800 ? -3.8°
Reaches altitude 10° 18:50:32 10° 161° (SSE) 1,905 ? -4.3°
Maximum altitude 18:54:38 73° 77° (ENE) 619 ? -5.1°
Drops below altitude 10° 18:58:48 10° 353° (N) 1,926 ? -6.0°
Sets 19:00:59 0° 351° (N) 2,834 ? -6.4°
